Location: Cassagne
(43.1218°N, 0.9901°E)
Time: 23:07:04
(UTC+00:00)

USA 229 - Pass Details

Date: 17 February 2020
Orbit: 986 x 1226 km, 63.4° (Epoch: 26 March)

Event Time Altitude Azimuth Distance (km) Brightness Sun altitude
Exits shadow 03:35:51 67° 78° (ENE) 1,271 4.1 -36.1°
Drops below altitude 10° 03:42:54 10° 134° (SE) 3,152 6.4 -34.9°
Sets 03:45:43 0° 137° (SE) 4,128 7.1 -34.4°
